Temp
65 65 65 64 64 63 62 62 61 62 63 62 62 62 61 60 61 58 57 58 57 57 58 57 56 56 55 58 58 58 56 57 53 57 57 60 60 59 56 55 59 60 60
66 66 66 66 65 63 62 62 63 63 64 63 63 62 62 61 61 60 58 61 57 57 57 56 56 58 56 55 56 56 56 57 56 52 53 55 57 55 54 56 59 62 60
66 66 65 64 64 63 63 63 63 63 62 62 63 61 61 62 61 60 60 60 58 59 58 57 57 56 56 57 56 55 55 56 53 51 52 53 54 53 52 55 56 56 58
66 65 64 63 63 63 63 63 63 62 62 61 61 61 61 61 62 61 60 60 58 58 59 58 58 56 55 53 53 53 53 52 51 51 51 50 50 51 51 53 54 54 54
65 64 63 63 62 62 62 62 62 62 62 62 61 60 60 60 61 60 60 59 59 58 59 59 59 59 60 56 54 54 53 52 51 50 49 47 48 48 48 49 50 52 52
62 63 64 63 63 62 62 62 61 61 61 61 60 60 60 61 56 55 58 58 58 57 57 58 58 59 60 57 57 57 55 52 50 49 50 50 50 50 47 49 50 50 51
62 63 63 63 63 62 62 62 61 60 60 60 60 60 60 60 53 52 54 59 58 59 58 58 58 58 57 58 56 55 54 54 55 53 51 52 50 49 46 44 45 49 51
60 61 61 61 60 60 59 59 59 59 59 59 60 59 59 60 52 50 52 57 57 58 59 59 58 58 57 56 54 53 53 53 53 54 55 54 55 53 50 49 49 48 50
58 58 60 60 58 58 57 56 58 59 59 59 59 59 59 59 51 49 52 56 56 56 58 58 57 56 52 50 53 52 52 52 53 53 52 51 49 48 49 52 51 50 51
59 60 60 59 57 58 58 57 57 57 58 58 58 58 57 58 52 48 50 56 56 55 56 56 52 54 48 47 53 52 50 51 53 54 54 50 48 50 49 53 53 51 50
59 60 59 59 58 58 58 57 57 56 56 56 56 56 57 56 56 47 47 55 56 55 54 54 54 47 46 45 48 51 50 51 52 53 52 51 53 52 53 52 52 52 50
57 57 57 56 57 59 56 55 55 53 53 53 53 53 55 56 50 49 46 46 51 54 54 54 53 45 44 45 46 46 46 47 52 53 52 51 52 53 52 51 51 52 53
56 55 55 55 56 56 54 53 53 53 51 51 51 52 53 54 55 48 45 45 45 50 55 52 48 44 44 44 44 45 44 48 49 50 51 52 53 54 52 51 51 51 51
54 54 54 54 53 53 54 52 51 50 49 50 50 50 51 52 54 55 53 51 47 49 51 52 49 48 47 48 48 47 49 50 51 52 52 54 51 49 49 51 52 50 51
54 54 54 54 52 51 51 51 52 51 50 49 50 50 49 50 53 46 49 52 51 50 50 51 50 49 49 48 48 50 51 51 50 51 50 51 50 50 51 50 50 51 51
54 54 53 52 52 51 50 50 47 44 45 40 42 42 46 44 43 41 40 42 42 43 49 50 49 48 48 48 49 52 52 51 51 51 51 50 50 49 50 49 50 50 49
51 52 52 49 49 49 50 49 49 51 42 40 39 39 39 41 40 39 40 40 40 42 49 49 49 48 48 51 51 51 52 53 51 51 50 49 49 49 47 49 49 48 44
52 47 50 49 49 49 49 49 49 48 47 48 44 42 41 39 40 40 41 42 47 46 49 49 48 47 47 51 52 51 51 50 49 48 49 49 49 49 49 49 50 49 48
51 50 51 50 50 49 49 50 50 48 48 47 49 46 43 39 41 40 40 51 49 49 47 47 49 51 52 51 50 51 50 48 47 47 46 47 47 48 46 47 46 40 41
50 46 45 50 50 50 50 49 48 47 47 48 48 50 48 45 48 48 48 49 48 47 49 51 51 51 50 50 49 48 47 46 46 46 45 45 45 46 45 44 44 45 44
49 49 44 49 51 50 49 48 48 48 48 48 49 48 36 48 49 48 49 49 49 47 48 48 49 49 49 49 49 48 46 46 46 45 44 44 45 44 44 44 43 42 41
49 50 49 51 52 49 48 49 47 47 47 46 48 46 35 47 49 48 47 50 49 47 51 50 48 49 49 49 48 48 48 45 45 44 44 43 44 44 44 44 45 45 45
48 48 50 51 49 45 48 47 46 46 45 45 46 45 47 47 46 47 49 49 51 50 50 49 48 47 46 46 46 47 47 45 45 45 44 43 44 45 45 44 44 42 43
49 49 49 49 48 48 47 47 47 44 46 46 47 47 47 48 48 49 50 51 50 48 48 47 46 47 45 44 45 45 44 44 45 45 44 44 44 41 42 43 44 44 45
49 49 49 50 47 47 48 48 49 48 47 47 47 47 47 49 52 52 51 50 48 47 46 46 46 45 44 43 43 42 35 33 42 38 44 44 44 44 45 45 44 43 44
50 50 50 48 47 48 49 49 49 49 49 50 50 50 50 50 49 50 49 48 46 45 45 45 45 44 43 42 40 33 32 32 36 32 45 45 46 47 48 48 48 50 48
MSLP
1015.96 1016.24 1016.55 1016.46 1016.22 1016.15 1016.70 1017.44 1018.36 1018.12 1017.65 1017.55 1017.51 1017.64 1017.92 1018.04 1018.13 1018.42 1018.69 1018.97 1019.19 1019.21 1019.29 1019.48 1019.53 1019.61 1019.77 1019.86 1020.03 1020.12 1020.16 1020.29 1020.38 1020.25 1020.47 1020.32 1020.28 1020.30 1020.46 1020.32 1020.61 1020.44 1020.36
1015.54 1015.60 1015.84 1015.97 1016.16 1016.57 1016.76 1016.70 1016.74 1017.45 1017.44 1017.26 1017.21 1017.23 1017.26 1017.38 1017.51 1017.72 1017.98 1018.20 1018.55 1018.73 1018.79 1018.93 1019.00 1019.29 1019.35 1019.56 1019.61 1019.81 1019.85 1019.92 1020.15 1020.27 1020.26 1020.27 1020.23 1020.32 1020.27 1020.55 1020.40 1020.31 1020.40
1014.86 1015.30 1015.34 1015.51 1015.84 1015.93 1016.01 1016.12 1015.97 1016.35 1016.58 1016.74 1016.86 1016.81 1016.80 1016.74 1016.81 1016.93 1017.21 1017.49 1017.56 1017.79 1018.01 1018.21 1018.32 1018.67 1018.80 1018.98 1019.16 1019.32 1019.52 1019.69 1019.93 1020.00 1020.01 1020.16 1020.14 1020.19 1020.39 1020.50 1020.44 1020.34 1020.20
1014.40 1014.85 1015.17 1015.44 1015.60 1015.55 1015.44 1015.44 1015.64 1015.87 1016.19 1016.29 1016.33 1016.35 1016.35 1016.32 1016.29 1016.30 1016.50 1016.69 1016.88 1017.04 1017.27 1017.45 1017.60 1017.76 1017.93 1018.27 1018.87 1018.78 1018.88 1019.12 1019.44 1019.63 1019.91 1020.05 1020.22 1020.08 1020.33 1020.44 1020.36 1020.43 1020.34
1014.69 1014.89 1015.09 1015.28 1015.48 1015.38 1015.63 1015.79 1015.92 1015.83 1015.82 1015.79 1015.82 1015.82 1015.87 1015.95 1015.92 1015.92 1016.02 1016.21 1016.41 1016.47 1016.57 1016.72 1016.77 1016.76 1016.90 1017.13 1017.64 1017.88 1018.21 1018.73 1019.15 1019.15 1019.56 1019.80 1019.99 1020.21 1020.23 1020.27 1020.29 1020.45 1020.30
1015.00 1015.13 1015.11 1015.21 1015.18 1015.40 1015.42 1015.54 1015.57 1015.70 1015.74 1015.71 1015.71 1015.67 1015.50 1015.40 1015.35 1015.38 1015.45 1015.53 1015.63 1015.85 1015.87 1015.84 1015.88 1015.92 1016.05 1016.22 1016.38 1016.81 1017.01 1017.02 1018.20 1018.51 1018.76 1019.10 1019.23 1019.44 1019.65 1020.12 1020.28 1020.35 1020.00
1015.38 1015.30 1015.13 1015.13 1015.39 1015.40 1015.39 1015.43 1015.50 1015.54 1015.53 1015.48 1015.45 1015.35 1015.17 1014.94 1014.75 1014.82 1014.72 1014.83 1014.87 1014.96 1015.01 1015.08 1015.09 1015.17 1015.31 1015.51 1015.72 1016.09 1016.54 1016.98 1017.22 1017.60 1017.98 1018.17 1018.46 1018.64 1019.23 1019.61 1019.86 1019.98 1019.61
1015.66 1015.59 1015.53 1015.47 1015.49 1015.52 1015.44 1015.50 1015.40 1015.42 1015.40 1015.20 1015.14 1015.02 1014.91 1014.47 1014.30 1014.33 1014.31 1014.40 1014.14 1014.23 1014.19 1014.20 1014.34 1014.45 1014.55 1014.83 1015.24 1015.49 1016.13 1016.37 1016.76 1017.02 1017.23 1017.30 1017.60 1017.89 1018.40 1018.73 1018.96 1019.28 1019.29
1016.05 1016.12 1016.13 1016.03 1015.94 1015.97 1015.83 1016.00 1015.44 1015.06 1015.16 1015.13 1014.93 1014.75 1014.63 1014.04 1013.75 1013.57 1013.80 1013.90 1013.80 1013.64 1013.33 1013.50 1013.78 1013.81 1013.95 1014.21 1014.63 1015.09 1015.52 1016.01 1016.18 1016.51 1016.69 1016.89 1017.14 1017.49 1017.86 1018.30 1018.58 1018.88 1018.72
1016.26 1016.23 1016.25 1016.17 1016.07 1016.04 1015.71 1015.39 1015.30 1014.90 1014.78 1014.63 1014.64 1014.24 1013.72 1013.74 1013.09 1012.95 1013.13 1013.21 1013.19 1013.12 1013.20 1012.93 1013.30 1013.19 1013.47 1013.62 1013.98 1014.53 1015.10 1015.51 1015.91 1016.04 1016.38 1016.63 1016.81 1016.90 1017.40 1017.39 1017.68 1017.99 1018.31
1016.31 1016.21 1016.23 1016.23 1016.18 1015.98 1015.83 1015.56 1015.28 1014.94 1014.75 1014.38 1014.01 1013.82 1013.45 1013.01 1012.62 1012.52 1012.71 1012.73 1012.44 1012.59 1012.52 1012.74 1012.73 1012.52 1013.09 1013.47 1013.74 1014.13 1014.53 1015.15 1015.51 1015.77 1015.96 1016.24 1016.52 1016.64 1016.73 1017.05 1017.16 1017.36 1017.59
1016.37 1016.29 1016.22 1016.09 1015.92 1015.64 1015.58 1015.16 1014.93 1014.82 1014.56 1014.28 1014.06 1013.55 1012.85 1012.36 1012.29 1012.05 1012.00 1012.19 1011.92 1012.14 1011.71 1011.88 1012.15 1012.51 1012.50 1013.27 1013.57 1014.02 1014.38 1014.85 1015.25 1015.46 1015.60 1015.77 1016.03 1016.12 1016.25 1016.49 1016.69 1016.96 1017.00
1016.11 1016.03 1015.96 1015.82 1015.57 1015.49 1015.49 1015.29 1015.14 1014.81 1014.60 1014.29 1014.00 1013.49 1012.95 1012.29 1011.92 1011.69 1011.73 1011.23 1011.51 1011.75 1011.46 1011.43 1011.67 1012.02 1012.62 1012.96 1013.20 1013.72 1014.12 1014.51 1014.75 1014.97 1014.96 1015.13 1015.38 1015.48 1015.72 1016.06 1016.28 1016.52 1016.66
1016.14 1016.05 1015.96 1015.84 1015.55 1015.24 1015.13 1015.07 1014.87 1014.72 1014.50 1014.12 1013.73 1013.34 1012.87 1012.41 1011.74 1011.32 1011.34 1011.41 1011.69 1011.53 1011.32 1011.25 1011.45 1011.93 1012.37 1012.45 1013.00 1013.62 1013.64 1013.82 1014.08 1014.15 1014.25 1014.51 1015.04 1015.31 1015.47 1015.71 1015.78 1015.98 1016.11
1016.01 1015.83 1015.62 1015.48 1015.37 1015.29 1015.06 1014.82 1014.51 1014.09 1014.00 1013.81 1013.25 1013.05 1012.79 1012.33 1011.65 1011.57 1011.49 1011.18 1011.05 1011.06 1011.19 1011.23 1011.41 1011.55 1012.10 1012.38 1012.54 1013.03 1013.09 1013.40 1013.54 1013.56 1013.93 1014.22 1014.58 1014.79 1014.95 1015.34 1015.59 1015.65 1015.69
1015.63 1015.55 1015.42 1015.35 1015.14 1015.02 1014.81 1014.35 1013.71 1013.58 1013.16 1013.00 1013.02 1013.27 1012.51 1012.34 1011.92 1011.48 1011.24 1010.96 1010.90 1010.95 1011.02 1011.02 1011.20 1011.41 1011.30 1011.71 1012.03 1012.35 1012.45 1012.59 1012.70 1013.19 1013.53 1013.82 1014.03 1014.24 1014.55 1014.97 1015.22 1015.38 1015.59
1015.62 1015.39 1015.37 1015.25 1015.11 1014.88 1014.44 1014.10 1013.66 1012.81 1012.60 1012.28 1012.12 1012.36 1012.41 1011.93 1011.73 1011.21 1010.91 1010.54 1010.64 1010.92 1010.89 1010.76 1010.93 1011.05 1011.35 1011.52 1011.65 1011.88 1012.06 1012.04 1012.37 1012.75 1013.16 1013.43 1013.62 1013.85 1014.22 1014.50 1014.69 1014.87 1015.56
1015.23 1015.12 1015.15 1015.02 1014.74 1014.45 1014.13 1013.86 1013.38 1013.15 1012.79 1012.30 1011.73 1011.66 1011.66 1011.63 1011.14 1010.90 1010.79 1010.66 1010.89 1010.84 1010.72 1010.59 1010.75 1011.19 1011.27 1011.46 1011.50 1011.64 1011.82 1012.23 1012.54 1012.87 1013.07 1013.31 1013.60 1013.84 1014.15 1014.38 1014.37 1014.49 1015.08
1015.06 1014.97 1014.94 1014.66 1014.17 1013.91 1013.65 1013.21 1012.85 1012.51 1012.15 1011.86 1011.45 1010.89 1011.09 1011.21 1011.00 1010.77 1010.64 1010.64 1010.67 1010.76 1010.80 1010.86 1011.08 1011.21 1011.27 1011.45 1011.60 1011.75 1012.09 1012.45 1012.77 1013.08 1013.46 1013.72 1013.96 1014.15 1014.52 1014.72 1014.88 1015.06 1015.46
1014.86 1014.81 1014.62 1014.31 1014.03 1013.52 1013.02 1012.61 1012.38 1012.18 1011.90 1011.65 1011.31 1010.96 1010.92 1011.17 1010.91 1010.73 1010.69 1010.69 1010.78 1010.89 1011.07 1011.20 1011.25 1011.39 1011.54 1011.81 1011.99 1012.21 1012.51 1012.91 1013.31 1013.64 1013.97 1014.27 1014.62 1014.69 1014.77 1014.97 1015.25 1015.40 1015.57
1014.81 1014.55 1014.44 1014.19 1013.62 1013.12 1012.98 1012.68 1012.33 1012.13 1011.77 1011.40 1011.14 1011.00 1011.06 1011.09 1010.85 1010.62 1010.73 1010.96 1011.26 1011.57 1011.47 1011.46 1011.66 1011.87 1012.02 1012.18 1012.36 1012.66 1013.05 1013.43 1013.82 1014.14 1014.54 1014.93 1015.02 1015.00 1015.22 1015.34 1015.51 1015.76 1015.94
1014.65 1014.50 1014.35 1013.86 1013.44 1013.27 1012.99 1012.62 1012.32 1011.98 1011.64 1011.38 1011.23 1011.15 1011.14 1010.88 1010.83 1011.02 1011.32 1011.50 1011.64 1011.85 1011.93 1012.03 1012.36 1012.54 1012.66 1012.86 1013.03 1013.16 1013.42 1013.88 1014.28 1014.69 1015.05 1015.19 1015.30 1015.50 1015.65 1015.74 1015.83 1015.92 1016.01
1014.61 1014.33 1013.96 1013.76 1013.52 1013.35 1013.00 1012.80 1012.33 1011.74 1011.27 1011.19 1011.21 1011.13 1011.02 1011.09 1011.15 1011.47 1011.51 1011.93 1012.28 1012.52 1012.74 1012.86 1013.05 1013.35 1013.52 1013.59 1013.69 1013.82 1013.98 1014.39 1014.84 1015.07 1015.25 1015.52 1015.71 1015.83 1015.89 1015.94 1015.90 1015.98 1016.05
1014.16 1013.96 1013.86 1013.71 1013.69 1013.58 1013.43 1013.06 1012.54 1011.91 1011.51 1011.47 1011.43 1011.59 1011.71 1011.77 1011.90 1012.19 1012.44 1012.64 1012.96 1013.32 1013.52 1013.61 1013.72 1013.92 1014.24 1014.44 1014.53 1014.61 1014.78 1015.09 1015.24 1015.40 1015.62 1015.80 1015.94 1016.10 1016.05 1015.95 1015.88 1015.93 1015.92
1013.95 1013.72 1013.67 1013.75 1013.86 1013.91 1013.91 1013.76 1013.33 1013.02 1012.79 1012.64 1012.61 1012.62 1012.83 1012.65 1012.64 1012.61 1012.87 1013.27 1013.65 1013.94 1014.23 1014.41 1014.65 1014.93 1015.07 1015.09 1015.25 1015.41 1015.69 1015.66 1015.66 1015.93 1015.98 1016.05 1016.02 1015.98 1015.87 1015.82 1015.77 1015.76 1015.67
1013.46 1013.41 1013.65 1013.83 1014.11 1014.28 1014.26 1014.13 1014.04 1013.93 1013.79 1013.63 1013.48 1013.33 1013.26 1012.99 1012.85 1013.06 1013.45 1013.84 1014.29 1014.68 1014.92 1015.19 1015.45 1015.63 1015.73 1015.85 1015.99 1016.12 1016.17 1016.21 1016.21 1016.32 1016.19 1016.14 1016.00 1015.76 1015.65 1015.57 1015.50 1015.36 1015.38
Wind_Speed
5 6 7 8 11 6 7 6 6 6 8 7 8 7 7 7 7 6 6 5 7 5 5 6 6 5 4 4 3 3 3 3 3 2 2 3 2 3 3 2 1 2 2
6 7 8 7 4 5 6 6 7 9 6 6 6 6 7 8 7 9 9 8 8 7 8 6 8 5 6 5 5 6 4 5 3 4 3 3 4 1 2 1 1 1 2
5 6 7 6 6 7 7 7 7 7 6 5 5 6 7 8 8 8 9 9 9 10 9 9 9 7 7 6 7 6 3 3 3 3 4 2 2 1 1 1 2 2 2
4 4 5 4 5 5 5 6 5 5 6 5 6 7 7 7 8 8 9 9 8 8 8 9 9 10 10 6 5 8 6 5 5 3 2 2 3 1 2 3 3 1 3
1 2 5 4 4 3 4 5 5 5 6 6 5 5 5 6 6 7 7 8 9 8 9 9 10 12 17 13 8 9 8 6 4 4 3 3 3 2 3 2 3 2 3
5 5 4 4 3 5 4 4 4 5 5 5 6 6 6 5 9 12 8 7 7 7 10 9 10 14 15 18 20 16 12 12 8 5 4 5 6 3 3 2 2 2 2
5 5 4 3 3 4 5 5 4 4 3 5 6 6 8 8 11 12 12 7 7 8 9 9 8 7 12 10 15 14 14 11 8 6 5 8 4 6 6 4 4 4 4
5 4 3 2 3 4 5 4 3 3 4 4 5 5 6 7 10 12 12 8 6 9 8 9 9 9 9 10 10 11 8 7 7 7 8 6 6 5 6 4 5 4 2
5 5 4 4 6 5 5 7 5 2 3 3 4 7 6 8 10 10 7 7 7 9 8 7 9 9 10 13 10 10 8 6 7 11 10 10 8 8 7 6 5 4 3
2 1 2 2 2 3 2 3 4 2 5 3 6 5 6 9 11 9 8 5 7 6 5 6 12 9 10 14 11 8 7 6 5 4 3 3 6 8 14 10 6 6 3
2 3 4 4 5 5 6 4 5 6 5 6 8 8 8 7 8 9 11 6 6 4 3 4 5 11 11 14 9 8 6 6 6 4 4 3 4 4 5 7 8 6 5
3 4 4 4 4 4 5 5 5 5 7 8 7 8 6 7 7 9 7 11 6 6 6 4 5 9 11 10 9 8 8 5 4 5 4 5 5 5 5 6 7 8 7
3 5 4 5 5 4 4 6 6 6 4 6 5 6 7 6 5 8 10 12 11 6 5 6 8 11 11 9 9 10 7 4 5 5 6 6 6 5 2 2 4 6 8
5 5 4 4 5 5 3 2 3 5 6 6 6 6 7 6 6 4 4 4 8 7 6 5 6 6 7 6 6 5 4 5 6 6 6 5 3 3 4 4 4 5 3
4 5 5 3 4 5 5 5 5 6 6 6 6 5 6 7 6 6 8 6 5 5 4 3 3 5 5 4 3 4 4 5 7 6 5 5 4 4 4 3 3 3 3
5 4 4 3 4 4 4 7 9 14 16 13 14 10 6 10 15 12 9 10 9 6 4 2 3 3 4 4 4 4 4 7 5 5 5 5 5 5 4 3 3 4 4
6 5 3 4 4 5 6 5 7 9 9 13 14 12 14 15 13 13 10 6 2 4 1 3 3 4 3 4 4 4 3 1 3 3 4 4 3 3 5 7 7 5 3
5 8 4 5 6 6 6 6 5 6 7 8 5 8 5 5 7 7 3 6 2 2 2 3 4 1 2 4 2 2 3 3 3 3 3 2 2 4 5 5 4 5 5
4 4 4 5 7 6 6 7 6 7 6 6 6 4 2 3 5 3 6 1 2 1 3 1 2 4 2 1 2 3 4 4 4 4 4 4 3 3 4 3 3 5 4
4 7 8 6 6 7 6 6 6 5 5 5 5 5 2 1 2 0 1 3 4 3 2 2 2 1 3 3 4 5 5 5 5 5 5 5 4 3 4 3 3 2 2
3 6 6 5 7 6 6 5 4 6 6 6 6 4 4 3 2 3 4 4 3 3 3 5 5 5 5 5 5 5 5 5 5 5 5 4 3 5 4 4 3 2 1
5 6 6 7 7 5 4 5 5 6 6 5 5 2 2 2 3 6 6 5 6 4 4 6 5 5 5 5 4 4 4 5 5 5 4 5 5 4 3 2 2 2 2
5 7 7 6 4 4 5 6 6 6 5 2 2 1 3 6 6 4 6 4 5 6 5 5 6 5 5 6 5 4 3 4 4 4 6 5 4 3 3 2 2 2 2
5 6 5 4 4 4 4 5 7 8 5 4 7 8 8 7 8 5 5 5 6 6 5 6 6 8 7 5 5 5 5 5 4 5 6 5 4 3 2 1 0 1 2
5 4 2 3 3 3 5 6 7 10 10 8 8 8 7 3 4 3 5 6 6 6 7 6 6 7 8 7 6 6 6 6 6 5 4 2 1 2 2 2 1 0 1
4 1 4 3 4 3 3 4 6 5 6 6 5 4 4 6 3 5 6 7 7 6 7 6 7 9 8 6 6 6 6 4 5 4 3 1 1 3 4 4 4 2 2
Wind_Direction
205 209 213 217 223 197 195 206 248 248 219 216 216 210 214 216 205 195 208 217 215 217 216 207 213 204 201 200 193 194 202 198 215 199 219 227 255 310 28 79 219 20 13
209 216 230 237 213 227 239 213 195 235 243 234 224 220 214 216 210 205 212 212 211 220 216 206 219 208 212 207 200 211 206 202 189 214 207 228 232 200 91 302 307 24 12
198 221 230 236 221 225 223 225 204 219 227 232 226 225 226 219 210 211 216 217 211 218 218 208 218 203 217 208 206 203 193 198 210 173 200 217 257 102 336 279 290 315 340
225 229 252 256 250 236 228 217 212 209 233 229 228 232 228 227 224 222 218 221 220 226 225 218 215 205 215 193 215 209 183 183 194 179 190 200 232 233 170 227 238 311 300
352 266 257 279 295 283 286 290 288 256 234 229 233 231 235 234 230 223 219 232 231 226 231 229 228 221 214 202 202 205 187 193 192 177 198 177 211 188 201 193 213 261 255
358 292 268 272 282 294 283 263 258 276 270 263 260 261 258 240 230 222 215 216 220 228 244 241 235 230 230 216 212 209 192 183 191 188 205 212 215 202 149 200 222 232 256
346 335 336 319 315 355 1 358 337 293 278 266 265 253 257 253 246 248 232 226 230 230 237 242 239 231 225 228 214 189 184 188 199 184 199 208 200 188 153 180 197 227 231
24 25 355 50 73 49 43 31 350 323 317 302 285 268 264 268 260 258 250 236 224 233 240 239 243 237 217 202 192 187 192 193 216 216 220 212 214 170 181 185 199 213 224
46 39 36 51 55 40 44 358 333 28 341 304 297 301 280 291 259 253 242 235 239 239 229 238 236 229 212 195 184 188 186 207 207 221 218 221 209 180 184 169 197 196 227
109 109 51 49 38 255 226 236 256 233 248 294 275 260 272 281 288 253 209 218 238 250 241 227 228 222 207 188 185 180 186 191 197 212 219 218 215 211 192 203 188 209 206
258 297 325 327 315 301 301 278 291 313 291 293 312 298 279 258 276 263 247 232 229 242 239 253 244 204 200 186 181 176 183 151 206 208 209 193 195 193 188 206 203 201 201
320 315 299 291 286 281 280 292 304 296 309 299 294 291 288 295 261 267 231 229 211 224 222 218 232 204 175 187 176 180 183 179 206 218 212 212 219 221 215 211 214 222 230
289 292 294 298 299 330 323 326 328 325 311 296 288 295 295 294 285 250 252 215 217 230 240 218 202 191 199 181 175 192 183 188 201 207 214 219 216 229 195 196 217 226 232
295 307 309 304 313 311 328 291 284 298 298 285 283 280 286 290 288 275 253 232 250 239 230 205 194 179 176 160 155 188 182 190 203 217 225 229 194 190 203 205 204 180 214
269 271 281 283 294 312 297 275 288 270 238 266 262 254 277 284 285 327 299 276 256 239 217 180 170 155 170 178 158 196 198 202 213 214 229 226 217 208 213 184 196 171 169
239 259 263 273 281 285 283 298 263 237 266 258 257 261 277 259 294 304 304 270 267 247 219 174 162 134 215 168 189 212 213 215 218 218 227 234 234 218 202 170 172 164 132
259 277 283 281 280 277 285 275 290 306 260 258 255 255 241 269 292 289 293 271 246 167 234 175 168 137 205 206 195 202 230 237 183 194 206 208 205 203 170 165 161 150 156
259 264 269 281 276 277 277 280 272 282 290 303 256 237 242 267 292 285 222 124 112 201 234 150 113 130 204 240 217 198 145 130 112 133 131 127 153 167 164 186 196 152 154
274 276 279 272 268 267 273 281 283 270 269 266 285 297 211 303 295 250 180 232 140 115 99 54 151 217 227 356 101 107 114 104 104 97 85 93 100 122 109 106 90 77 92
287 276 264 289 301 287 287 285 292 288 286 289 290 300 326 294 312 200 178 98 72 51 323 271 277 163 101 115 109 109 103 95 92 91 91 84 81 87 88 79 79 92 12
297 284 304 302 295 300 313 307 314 314 303 295 290 310 311 266 314 94 95 69 88 89 81 86 83 96 98 96 93 88 90 94 92 98 94 99 104 96 86 73 60 64 87
286 306 311 298 313 336 345 343 321 310 302 301 311 338 5 273 99 94 103 94 73 65 78 92 84 74 69 72 77 84 83 92 97 99 107 102 96 98 91 98 123 133 139
304 298 297 314 343 352 9 345 312 298 289 300 337 18 58 75 74 57 99 119 105 95 82 89 95 87 69 57 47 41 71 102 112 122 115 112 111 116 125 121 121 129 144
287 294 302 333 43 37 14 3 4 11 26 42 70 75 74 73 73 62 62 91 93 89 83 79 72 70 63 54 49 54 75 102 106 115 122 122 127 154 184 177 258 267 261
303 302 335 90 90 65 38 23 49 57 57 54 63 74 92 93 1 18 103 104 98 93 85 81 71 69 64 65 70 80 77 71 101 107 109 106 101 100 128 118 78 159 190
320 20 109 114 104 104 87 64 61 54 53 49 38 33 12 347 13 102 108 104 100 95 93 78 73 76 74 68 75 70 78 87 91 69 84 38 19 39 25 7 2 28 69